Simultaneous Nadir Overpasses (SNOs) Predictions

Prediction of SNOs between GOES-16 and TERRA Satellite Orbit:

Table of predicted SNOs for the next 14.0 days since TLE Epoch: 8/1/2020
Index Date Time (GOES-16) GOES-16 Lat,Lon TERRA Lat,Lon Distance(km) Time Diff (sec)
1 08/01/2020 03:35:49 0.00, -75.18 -0.19, -76.00 93.43 80
2 08/03/2020 03:20:58 0.01, -75.18 0.46, -73.05 243.00 80
3 08/03/2020 15:44:54 -0.00, -75.20 0.61, -78.21 341.80 80
4 08/05/2020 15:30:03 -0.01, -75.21 -0.03, -75.25 5.27 80
5 08/07/2020 15:17:51 -0.02, -75.23 -0.62, -72.29 334.14 80
6 08/08/2020 03:41:56 0.01, -75.23 -0.44, -77.49 256.41 80
7 08/10/2020 03:27:04 0.01, -75.26 0.15, -74.52 82.78 80
8 08/12/2020 03:14:53 0.02, -75.29 0.79, -71.57 422.28 80
9 08/12/2020 15:38:49 -0.01, -75.30 0.28, -76.73 161.97 80
10 08/14/2020 15:23:58 -0.01, -75.34 -0.37, -73.78 177.90 80
